| 
				
				
				
					
						
					 | 
				
				
				
					
					
					Asteroid (1517) Beograd
					
					
					
					
						
					
					
						
							(Preview)
						
						
						
						
							
						
							
								The magnitude 16.6 asteroid (1517) Beograd will occult the magnitude 4.2 double star 91 Aquarii (HD 219449) in the constellation Aquarius between 12:10:55 and 12:12:20, 7th January, 2012. The 1.3 second event is visible from China.     Position (J2000):     R.A. 23 15 53.49482  |  Dec. -09° 05' 15.... 
							 
							
						 
						
					
				 | 
				
					
						Blobrana
					 | 
				
				
					
						0
					 | 
				
				
				
					
						
					 | 
				
				
					
						
					 | 
				
			
		
			
			
				
				
					
						 
					 | 
				
				
				
					
						
					 | 
				
				
				
					
					
					Asteroid 2005 BU
					
					
					
					
						
					
					
						
							(Preview)
						
						
						
						
							
						
							
								The 13 - 29 metre wide asteroid 2005 BU will make a close pass (20.1 lunar distances, 0.0517 AU), travelling at 11.24 km/second, to the Earth-Moon system on the 14th January, 2012 @ 05:17 UT ±00:41.   See more  The Lunar Distanc...               
							 
							
						 
						
					
				 | 
				
					
						Blobrana
					 | 
				
				
					
						0
					 | 
				
				
				
					
						
					 | 
				
				
					
						
					 | 
				
			
		
			
			
				
				
					
						 
					 | 
				
				
				
					
						
					 | 
				
				
				
					
					
					Asteroid 2004 YD
					
					
					
					
						
					
					
						
							(Preview)
						
						
						
						
							
						
							
								The 41 - 92 metre wide asteroid 2004 YD will make a close pass (50.0 lunar distances, 0.1284 AU), travelling at 8.45 km/second, to the Earth-Moon system on the 12th January, 2012 @ 14:03 UT ±2 days 19:02.   See more  The Lunar Dis...               
							 
							
						 
						
					
				 | 
				
					
						Blobrana
					 | 
				
				
					
						0
					 | 
				
				
				
					
						
					 | 
				
				
					
						
					 | 
				
			
		
			
			
				
				
					
						 
					 | 
				
				
				
					
						
					 | 
				
				
				
					
					
					Asteroid 2008 SA
					
					
					
					
						
					
					
						
							(Preview)
						
						
						
						
							
						
							
								The 26 - 58 metre wide asteroid 2008 SA will make a close pass (21.9 lunar distances, 0.0563 AU), travelling at 6.63 km/second, to the Earth-Moon system on the 6th January, 2011 @ 07:30 UT ±18:41.   See more  The Lunar Distance (LD), the distance between Earth and the Moon, equals 384,401 km, (or 0.00256 A... 
							 
							
						 
						
					
				 | 
				
					
						Blobrana
					 | 
				
				
					
						0
					 | 
				
				
				
					
						
					 | 
				
				
					
						
					 | 
				
			
		
			
			
				
				
					
						 
					 | 
				
				
				
					
						
					 | 
				
				
				
					
					
					Asteroid 2006 HV57
					
					
					
					
						
					
					
						
							(Preview)
						
						
						
						
							
						
							
								Orbital elements:
2006 HV57                                                Earth MOID = 0.1503 AU
Epoch 2012 Mar. 14.0 TT = JDT 2456000.5                 MPC
M  85.79471              (2000.0)            P               Q
n   0.21689679     Peri.   17.43044     +0.21167611     +0.97175969
a   2.7434726      Node   264.88632     -0.90870605     +0.15640528
e   0.5758323      Incl.    6.01025     -0.35978681     +0.17669323
P   4.54           H   18.5           G   0... 
							 
							
						 
						
					
				 | 
				
					
						Blobrana
					 | 
				
				
					
						0
					 | 
				
				
				
					
						
					 | 
				
				
					
						
					 | 
				
			
		
			
			
				
				
					
						 
					 | 
				
				
				
					
						
					 | 
				
				
				
					
					
					Asteroid 2012 AF3
					
					
					
					
						
					
					
						
							(Preview)
						
						
						
						
							
						
							
								Orbital elements:
2012 AF3                                                 Earth MOID = 0.0191 AU
Epoch 2012 Mar. 14.0 TT = JDT 2456000.5                 MPC
M 154.81611              (2000.0)            P               Q
n   0.90260543     Peri.  251.70686     +0.97572973     +0.04746816
a   1.0604025      Node   105.14078     +0.02753633     +0.94187609
e   0.1421291      Incl.   12.79474     -0.21724006     +0.33259015
P   1.09           H   24.7... 
							 
							
						 
						
					
				 | 
				
					
						Blobrana
					 | 
				
				
					
						0
					 | 
				
				
				
					
						
					 | 
				
				
					
						
					 | 
				
			
		
			
			
				
				
					
						 
					 | 
				
				
				
					
						
					 | 
				
				
				
					
					
					Asteroid 2012 AE3
					
					
					
					
						
					
					
						
							(Preview)
						
						
						
						
							
						
							
								Orbital elements:
2012 AE3                                                 Earth MOID = 0.2636 AU
Epoch 2012 Mar. 14.0 TT = JDT 2456000.5                 MPC
M 321.03874              (2000.0)            P               Q
n   0.57952274     Peri.  290.75587     -0.63918537     +0.42314249
a   1.4248060      Node   279.73905     -0.18819372     -0.89569810
e   0.1864439      Incl.   40.65993     -0.74567096     -0.13665777
P   1.70           H   20.0... 
							 
							
						 
						
					
				 | 
				
					
						Blobrana
					 | 
				
				
					
						0
					 | 
				
				
				
					
						
					 | 
				
				
					
						
					 | 
				
			
		
			
			
				
				
					
						 
					 | 
				
				
				
					
						 
					 | 
				
				
				
					
					
					Asteroid 2012 AD3
					
					
					
					
						
					
					
						
							(Preview)
						
						
						
						
							
						
							
								Orbital elements:
2012 AD3                                            PHA, Earth MOID = 0.0283 AU
Epoch 2012 Mar. 14.0 TT = JDT 2456000.5                 MPC
M  55.92084              (2000.0)            P               Q
n   0.30222733     Peri.  215.59544     +0.99546654     -0.08166524
a   2.1991097      Node   148.98080     +0.09305437     +0.94229164
e   0.6092676      Incl.    5.42901     -0.01967887     +0.32468025
P   3.26           H   19... 
							 
							
						 
						
					
				 | 
				
					
						Blobrana
					 | 
				
				
					
						0
					 | 
				
				
				
					
						
					 | 
				
				
					
						
					 | 
				
			
		
			
			
				
				
					
						 
					 | 
				
				
				
					
						
					 | 
				
				
				
					
					
					Asteroid 1996 AE2
					
					
					
					
						
					
					
						
							(Preview)
						
						
						
						
							
						
							
								Orbital elements:
1996 AE2                                                 Earth MOID = 0.1213 AU
Epoch 2012 Mar. 14.0 TT = JDT 2456000.5                 MPC
M  68.62025              (2000.0)            P               Q
n   0.61628231     Peri.  305.87462     +0.27949026     -0.80006174
a   1.3675701      Node   118.98011     +0.95222622     +0.30184429
e   0.2568528      Incl.   37.35965     -0.12308706     +0.51845080
P   1.60           H   20.0           G...                        
							 
							
						 
						
					
				 | 
				
					
						Blobrana
					 | 
				
				
					
						0
					 | 
				
				
				
					
						
					 | 
				
				
					
						
					 | 
				
			
		
			
			
				
				
					
						 
					 | 
				
				
				
					
						
					 | 
				
				
				
					
					
					Asteroid 2012 AC3
					
					
					
					
						
					
					
						
							(Preview)
						
						
						
						
							
						
							
								Orbital elements:
2012 AC3                                                 Earth MOID = 0.0659 AU
Epoch 2012 Mar. 14.0 TT = JDT 2456000.5                 MPC
M  18.15750              (2000.0)            P               Q
n   0.44292650     Peri.  208.97939     -0.66185848     -0.73885858
a   1.7044396      Node   282.76875     +0.71036568     -0.56423518
e   0.3949921      Incl.    7.45951     +0.23942420     -0.36841100
P   2.23           H   23.0           G   0... 
							 
							
						 
						
					
				 | 
				
					
						Blobrana
					 | 
				
				
					
						1
					 | 
				
				
				
					
						
					 | 
				
				
					
						
					 | 
				
			
		
			
			
				
				
					
						 
					 | 
				
				
				
					
						
					 | 
				
				
				
					
					
					Asteroid 2012 AB3
					
					
					
					
						
					
					
						
							(Preview)
						
						
						
						
							
						
							
								Orbital elements:
2012 AB3                                                 Earth MOID = 0.0347 AU
Epoch 2012 Mar. 14.0 TT = JDT 2456000.5                 MPC
M  26.13802              (2000.0)            P               Q
n   0.25774490     Peri.  310.95002     +0.43704947     -0.89057210
a   2.4453592      Node   112.71766     +0.86080294     +0.37354597
e   0.6212914      Incl.    7.84928     +0.26077971     +0.25950867
P   3.82           H   24.0           G   0... 
							 
							
						 
						
					
				 | 
				
					
						Blobrana
					 | 
				
				
					
						0
					 | 
				
				
				
					
						
					 | 
				
				
					
						
					 | 
				
			
		
			
			
				
				
					
						 
					 | 
				
				
				
					
						
					 | 
				
				
				
					
					
					Asteroid 2012 AA3
					
					
					
					
						
					
					
						
							(Preview)
						
						
						
						
							
						
							
